Voltar ao catálogo

METEOR 2-8 DEB

AtivoPO
NORAD 36320·DEBRIS·🇷🇺 Russia

Lançado Mar 25, 1982 de Plesetsk Cosmodrome

Loading…

Próximas Passagens (próximas 24 horas)

TLE

AtualizadoSource: Space-Track

Época: Sep 13, 2026, 03:45 UTC

1 36320U 82025E   26256.15637054  .00004602  00000-0  13033-2 0  9997
2 36320  82.4646  53.4027 0003389 342.4374  17.6702 14.45417831680923

Acompanhe METEOR 2-8 DEB em tempo real com AllMySat

Download on the App Store